Regional Weather Roundup
Issued by NWS

Home | Current Version | Previous Version | Text Only | Print | Product List | Glossary Off
Versions: 1 2 3 4 5 6 7 8 9 10 11 12 13 14 15 16 17 18 19 20 21 22 23 24 25 26 27

000
ASUS45 KCYS 160310
RWRWY

WYOMING REGIONAL WEATHER ROUNDUP
NATIONAL WEATHER SERVICE CHEYENNE WY
900 PM MDT TUE APR 15 2014

NOTE:  "FAIR" INDICATES FEW OR NO CLOUDS BELOW 12,000 FEET
WITH NO SIGNIFICANT WEATHER AND/OR OBSTRUCTIONS TO VISIBILITY.

WYZ001-160400-
YELLOWSTONE NATIONAL PARK

CITY           SKY/WX    TMP DP  RH WIND       PRES   REMARKS
LK YELLOWSTONE   N/A     25  22  88 CALM      29.83R
W YELLOWSTONE  NOT AVBL

$$
WYZ002>013-054>058-071-098>099-160400-
NORTHERN WYOMING

CITY           SKY/WX    TMP DP  RH WIND       PRES   REMARKS
JACKSON          N/A     36  32  87 CALM      29.81R
CODY           CLOUDY    37  32  81 E5        29.74R WCI  34
GREYBULL       CLOUDY    42  33  70 NW14      29.71R
WORLAND        LGT RAIN  39  34  82 N22G33    29.73R WCI  29
SHERIDAN       CLOUDY    39  34  82 NW18      29.71R WCI  30
BUFFALO        LGT SNOW  33  31  92 NW22G37   29.71R FOG     WCI  21
GILLETTE       CLOUDY    44  34  67 N17G25    29.63R
HULETT         RAIN     N/A N/A N/A N8        29.65
NEWCASTLE      FAIR      50  28  43 N20G26    29.58

$$
WYZ014>020-022>026-101>103-160400-
CENTRAL WYOMING

CITY           SKY/WX    TMP DP  RH WIND       PRES   REMARKS
BIG PINEY      PTCLDY    39  11  31 NW21G29   29.80R WCI  29
PINEDALE       SNOW      32  32 100 W25G37    29.83R VSB 1/4 WCI  19
DUBOIS         FAIR      30  23  74 N6G17     29.75R WCI  24
LANDER         MOCLDY    42  28  57 NW36G44   29.64R
RIVERTON       FLURRIES  38  29  70 NW35G53   29.71R WCI  25
CASPER         CLOUDY    47  24  40 W16       29.62R
DOUGLAS        CLOUDY    50  30  46 W16       29.60R

$$
WYZ021-027>030-104>119-160400-
SOUTHERN WYOMING

CITY           SKY/WX    TMP DP  RH WIND       PRES   REMARKS
EVANSTON       CLOUDY    42  24  49 NW13      29.89R
KEMMERER       MOCLDY    34  27  75 W23       29.85R WCI  22
FORT BRIDGER   FAIR      42  28  57 W23       29.88S
ROCK SPRINGS   CLOUDY    45  25  45 W36G48    29.80S
DIXON          CLOUDY    47  22  37 W6        29.78F
RAWLINS        CLOUDY    46  20  35 W36G46    29.74R
SARATOGA       CLOUDY    45  19  36 W14       29.76R
LARAMIE        MOCLDY    43  21  41 W26G35    29.74R
CHEYENNE       CLOUDY    48  19  31 W15       29.71S
TORRINGTON     CLOUDY    54  30  40 SW17      29.60R
PINE BLUFFS    FAIR      45  27  49 SW7       29.69S

$$



USA.gov is the U.S. government's official web portal to all federal, state and local government web resources and services.